Wind_Gust
20 21 21 22 23 21 22 21 21 21 21 21 21 21 23 24 25 24 21 20 20 19 21 20 20 20 20 21 22 22 23 23 22 23 23 23 24 24 23 24 25 23 23 23 18 19 20 21 24 23 21 25 24 23 25 23 22 17 13 15 21 21 22 20 21 18 15 10 14 22 24 22 25 22 22 22 22 22 16 19 24 22 23 21 23
20 22 21 21 24 23 23 22 22 22 21 21 21 22 22 23 23 24 24 25 24 22 21 19 21 21 21 21 22 22 23 25 24 24 24 23 24 24 23 26 24 22 22 24 21 21 23 26 22 19 22 27 25 25 24 24 24 25 22 18 24 22 19 23 18 17 19 17 19 21 25 26 24 22 22 23 21 21 23 22 22 21 22 22 24
22 23 22 21 22 24 24 23 23 22 22 21 21 23 23 22 22 22 23 24 25 25 23 20 19 22 22 20 22 22 23 23 24 24 26 26 27 24 23 26 26 26 24 26 26 25 25 24 22 24 25 29 25 25 22 22 23 25 23 20 23 21 23 22 19 19 19 19 20 23 22 24 23 23 24 24 22 24 24 22 22 23 22 21 24
23 21 23 23 22 22 24 24 22 23 23 22 22 22 23 22 22 23 23 23 25 25 25 22 20 16 19 20 18 21 24 20 21 24 26 27 27 27 28 26 26 26 26 26 27 29 27 24 22 19 22 27 25 25 23 20 17 17 24 23 25 25 20 19 21 21 20 21 22 25 25 24 27 24 24 24 24 23 24 22 21 22 21 23 21
24 24 22 22 23 24 24 24 24 25 24 24 23 23 23 24 23 24 24 24 24 25 25 21 22 24 21 21 23 21 24 23 21 22 25 25 25 25 25 25 24 26 23 26 20 26 27 27 22 20 25 24 25 25 25 21 23 22 28 29 26 26 22 20 22 21 21 22 21 21 21 24 24 23 25 26 25 24 22 23 23 22 21 19 21
23 22 23 23 24 25 24 23 24 25 25 24 24 24 24 24 25 23 23 26 26 27 26 23 21 24 24 23 21 21 21 20 22 24 23 24 26 26 23 22 20 23 24 27 24 25 26 23 22 26 27 25 26 25 25 23 24 26 25 27 29 19 19 20 21 21 22 23 21 22 21 25 26 24 26 24 24 24 23 23 21 21 22 19 19
23 23 24 23 24 24 24 24 26 25 25 25 25 25 25 24 25 26 25 25 27 27 28 29 26 19 24 21 17 18 19 19 20 19 21 23 24 24 24 20 24 23 22 25 24 22 23 22 21 23 25 26 25 25 24 23 22 20 21 22 24 17 18 22 21 23 23 21 22 21 23 22 20 21 27 26 23 23 22 21 21 22 20 20 20
23 23 23 23 24 25 25 24 25 26 26 26 26 26 25 25 25 25 25 26 26 26 28 29 30 30 23 15 17 18 20 20 20 20 18 23 25 25 24 25 25 24 23 22 23 19 19 17 18 21 22 22 21 17 16 16 14 17 16 18 22 17 16 21 23 22 21 22 22 22 20 22 25 24 27 23 24 24 25 22 20 20 20 19 19
22 22 23 24 24 25 24 25 25 25 26 26 26 26 27 26 26 26 25 26 25 26 26 27 30 29 31 22 18 17 18 22 17 14 21 27 26 24 25 24 25 25 25 23 25 24 17 17 18 16 22 10 11 9 7 7 17 16 16 12 13 15 16 17 18 19 21 21 17 18 22 22 24 24 26 26 25 25 22 19 20 19 20 20 21
22 23 23 24 24 25 25 25 26 26 27 27 27 27 28 27 27 27 27 27 27 27 27 27 26 28 29 30 23 15 18 21 13 11 10 17 20 23 23 22 19 18 17 22 22 21 19 17 16 18 19 15 13 13 13 12 11 14 18 18 14 14 13 17 21 18 19 21 21 18 17 20 24 23 23 21 20 18 19 19 20 19 20 19 17
22 23 24 24 25 26 26 26 26 27 27 28 27 28 29 29 28 28 27 27 28 27 27 27 27 26 27 29 28 28 22 18 13 14 14 16 16 17 19 16 16 18 21 23 20 19 20 19 19 17 17 14 19 18 15 13 12 6 7 6 6 14 15 14 16 14 14 16 18 13 16 16 20 23 23 21 20 20 19 19 19 19 21 21 21
22 23 24 24 25 26 26 26 26 27 27 28 28 28 29 29 29 28 28 28 28 27 28 27 26 26 26 26 26 27 26 20 21 21 19 17 15 19 18 19 24 21 17 22 21 19 18 16 17 22 22 22 21 20 16 12 13 11 10 11 9 7 6 9 16 17 16 15 15 20 18 13 21 20 23 23 21 20 19 19 19 20 20 20 19
23 23 24 24 25 25 26 26 26 27 27 27 27 28 29 29 29 29 29 28 27 27 28 28 27 26 25 25 26 27 22 23 27 26 25 21 19 17 24 21 19 17 17 16 15 13 14 14 23 23 23 21 23 21 19 17 11 13 12 12 11 10 9 8 8 12 17 14 15 18 19 17 17 18 20 21 18 19 19 21 20 19 21 18 18
22 23 24 24 25 26 26 26 26 26 27 27 27 27 28 29 28 27 28 28 28 27 26 27 27 27 27 26 25 25 22 21 27 29 27 24 19 13 20 23 17 16 17 20 19 17 23 20 21 22 20 23 22 24 23 19 18 16 17 16 18 15 9 10 8 5 6 14 15 18 17 16 18 18 16 13 15 20 20 20 17 17 16 11 8
22 22 23 23 24 25 26 26 26 26 27 27 27 28 29 28 28 28 29 28 29 29 27 26 27 26 27 27 27 25 23 21 25 29 28 24 21 14 17 18 16 19 21 18 19 19 20 25 26 19 19 20 20 17 20 19 20 18 18 19 17 13 12 8 8 11 18 12 7 11 15 17 15 15 13 17 20 17 14 13 8 8 10 15 17
23 22 22 23 23 24 25 25 26 25 26 27 28 28 27 29 30 28 28 28 28 27 26 26 26 27 27 28 27 27 26 21 26 29 29 27 20 17 18 20 19 21 23 20 19 19 16 10 12 10 17 18 13 13 13 19 19 20 19 19 18 14 15 8 6 8 14 17 14 9 13 15 11 12 13 11 16 11 12 12 10 8 10 10 10
24 24 24 24 24 25 24 25 25 25 25 26 27 27 28 28 28 28 28 29 28 29 28 27 27 27 28 27 28 28 26 23 25 28 28 28 18 21 19 20 20 21 15 13 17 16 17 14 16 10 11 13 16 22 22 18 19 17 18 19 15 15 14 13 11 12 16 19 20 17 16 17 17 16 15 16 13 12 14 15 15 15 13 13 11
24 24 25 25 25 25 25 25 25 25 25 27 27 27 26 26 27 28 28 28 29 29 28 28 28 27 28 30 30 28 27 24 25 29 27 27 20 19 23 23 20 13 14 14 18 21 20 20 10 13 12 11 11 16 14 15 19 19 20 21 17 15 16 15 16 15 14 18 18 18 17 17 19 18 18 17 17 8 15 12 12 14 12 12 15
22 23 24 25 26 26 25 25 24 24 25 25 26 26 26 26 25 25 26 26 28 28 28 28 28 28 28 29 27 31 29 25 25 31 27 27 23 19 21 17 10 12 13 14 15 15 17 17 20 12 10 14 13 12 10 10 10 14 16 18 18 16 18 18 18 20 19 20 18 19 20 17 18 18 18 18 16 14 14 13 19 21 19 16 14
21 22 22 23 24 27 26 26 25 26 26 25 26 25 24 25 26 25 24 26 27 27 28 29 29 28 28 28 31 32 33 30 30 32 29 29 29 22 11 10 11 13 15 13 14 19 17 16 16 16 16 16 15 14 11 10 8 14 15 15 17 19 19 19 17 18 19 18 18 17 18 17 17 16 15 16 18 18 16 19 21 19 15 13 11
20 21 21 22 23 24 25 26 26 25 26 26 26 25 24 24 25 26 25 26 26 26 28 27 28 28 28 28 29 30 35 36 32 33 31 30 32 25 14 12 11 16 18 21 21 18 16 15 12 14 15 15 16 16 14 15 10 13 11 12 15 18 15 18 17 10 19 18 17 17 18 17 18 15 15 17 15 16 18 18 20 19 17 13 12
20 20 22 22 22 22 22 24 24 25 25 26 27 26 25 25 24 25 26 25 25 25 24 26 28 28 27 28 26 25 27 35 33 32 33 32 31 34 24 20 16 22 23 21 19 19 17 13 12 14 18 17 18 20 21 22 23 21 21 20 20 17 18 17 17 17 17 16 17 17 17 16 15 16 17 18 18 18 18 19 18 17 18 18 18
20 21 21 22 21 21 20 21 24 24 25 26 26 27 27 26 25 24 25 25 26 26 25 26 25 26 26 28 29 29 27 25 28 31 31 32 32 32 31 25 23 22 19 21 19 18 15 16 14 17 22 20 22 23 22 23 18 20 24 23 19 15 11 14 14 16 15 15 16 17 17 17 17 15 16 16 17 18 17 16 16 15 15 17 18
20 20 20 20 20 21 22 21 22 23 24 25 25 26 28 27 27 27 26 26 27 27 27 27 27 25 25 26 28 29 29 28 23 26 26 29 30 31 29 29 27 24 25 23 19 18 17 16 14 18 22 22 24 25 24 21 21 19 17 16 17 13 15 11 10 11 10 13 16 16 17 17 17 16 16 16 16 15 16 15 14 13 16 15 18
20 20 21 21 21 21 21 20 19 21 24 25 25 26 25 27 28 27 26 26 26 26 26 26 26 25 26 25 25 25 26 27 26 25 26 26 28 27 25 27 26 25 29 23 20 18 17 18 17 17 17 20 21 22 21 23 25 22 22 18 11 10 10 9 12 10 18 17 16 17 18 16 16 15 13 13 14 15 15 14 15 16 17 17 17
19 20 21 20 21 22 21 19 17 19 19 22 24 25 25 26 27 28 28 27 26 26 26 27 26 24 24 25 24 22 21 22 24 25 21 20 20 24 24 26 24 21 21 23 21 21 21 21 23 22 20 16 19 19 19 22 23 24 23 19 18 18 16 17 18 18 14 14 14 15 15 15 14 12 11 12 14 14 14 15 15 15 15 15 16
18 18 19 21 19 20 20 22 20 17 17 19 23 25 26 25 26 26 27 28 27 25 24 24 26 26 24 23 24 25 25 22 21 18 21 21 23 21 24 24 21 20 22 20 17 20 23 22 20 17 15 18 21 18 18 18 22 22 21 20 21 20 19 17 14 15 15 16 15 15 13 10 11 11 14 13 13 13 11 12 12 14 15 16 16
20 20 20 21 21 21 22 12 17 21 20 17 18 20 23 23 24 24 23 26 28 27 25 25 25 24 25 22 23 25 25 24 21 19 19 21 21 21 24 24 24 22 23 19 17 17 18 14 18 18 19 21 21 20 21 20 19 18 20 21 20 18 17 16 15 17 16 15 14 13 12 13 14 14 14 13 13 12 11 10 10 11 9 11 14
17 18 20 21 21 20 21 22 22 21 21 17 16 16 15 20 23 20 17 17 17 20 24 24 21 20 19 21 21 22 21 20 19 12 14 13 18 17 20 20 22 21 21 22 18 18 18 21 20 20 20 19 18 19 18 20 19 19 19 19 18 18 17 16 18 16 14 13 13 12 11 12 13 13 13 14 13 13 11 10 10 10 10 9 10
17 18 20 20 22 21 21 22 22 23 22 21 14 13 5 5 12 19 16 6 7 8 7 17 15 16 18 15 13 15 13 13 12 14 15 15 15 15 13 13 12 15 15 18 16 17 19 18 18 17 17 16 16 17 17 16 17 19 19 16 20 19 18 17 16 15 13 13 12 11 13 11 14 15 14 13 12 12 12 7 10 8 9 9 10
18 18 20 19 20 21 20 21 22 23 24 22 23 14 16 12 10 11 10 6 5 9 10 8 11 13 16 15 10 10 11 11 13 13 14 15 14 14 14 13 13 12 12 13 17 17 14 13 13 15 15 15 16 16 16 17 17 18 17 16 15 16 15 15 12 9 10 11 12 12 11 14 13 12 13 12 11 11 11 9 9 8 7 7 8
20 20 20 19 19 19 21 21 20 22 23 26 26 23 22 15 14 5 5 5 5 11 14 12 11 12 14 15 13 16 14 13 14 14 14 14 14 14 14 14 12 12 10 7 13 14 13 11 11 12 12 13 13 13 15 15 15 14 12 13 14 13 13 12 9 11 10 11 11 11 10 10 10 9 9 9 7 9 9 8 9 9 9 12 11
18 18 20 19 17 17 19 20 21 22 22 23 22 25 24 22 21 12 11 3 5 5 13 13 12 11 11 11 11 8 5 7 10 11 11 12 11 12 12 12 12 13 10 9 11 12 12 12 12 12 13 13 14 13 13 14 14 15 14 14 14 12 12 10 9 12 11 12 10 9 7 7 7 7 7 7 7 8 7 7 8 7 8 8 8
14 16 19 18 19 18 19 21 22 20 21 21 23 23 23 24 21 22 19 10 11 8 10 11 9 8 10 9 8 7 8 9 9 10 11 11 12 12 10 12 10 7 9 13 11 11 11 11 12 13 13 12 12 12 12 13 12 13 13 14 13 11 11 11 12 11 9 9 8 7 7 7 7 7 8 8 8 7 7 7 8 8 7 7 5
15 13 8 9 19 18 18 18 20 21 19 21 22 23 24 22 22 22 21 21 23 23 17 15 12 11 13 9 7 8 8 9 10 10 12 13 12 13 11 10 13 14 15 16 15 15 14 13 13 13 12 12 12 11 12 13 12 12 12 12 11 10 9 10 11 10 10 9 9 9 8 8 8 7 7 8 8 9 8 8 8 9 8 6 7
15 18 18 17 19 18 18 18 19 19 19 21 20 21 20 20 22 21 20 20 22 21 18 19 15 7 7 5 3 6 7 8 10 12 11 13 14 10 13 16 13 16 16 16 16 15 14 14 14 14 14 13 13 13 13 12 11 12 12 11 9 9 10 9 8 8 8 9 8 7 7 8 8 8 9 10 8 8 9 8 8 7 6 6 6
14 16 17 18 20 20 17 17 17 17 13 14 18 19 20 21 20 21 22 22 21 21 21 21 16 13 10 9 6 8 8 10 10 12 13 13 14 13 18 17 15 15 15 15 15 15 15 14 14 14 13 13 13 14 14 13 13 13 9 12 12 10 8 8 8 6 7 9 9 7 6 7 7 7 8 8 8 8 10 9 8 6 5 6 7
14 16 17 18 18 17 18 18 17 10 16 18 17 18 20 21 21 21 21 22 22 21 22 21 13 21 22 19 11 18 19 5 7 7 9 10 12 15 15 16 15 14 13 14 13 13 14 14 13 13 13 13 13 12 12 12 11 10 9 11 9 10 6 10 6 7 7 9 8 8 7 8 8 8 8 9 8 7 7 6 7 8 5 3 3
12 13 7 6 8 17 16 17 18 17 17 18 17 18 17 19 20 22 23 23 21 20 20 20 21 20 21 22 23 19 20 22 19 18 17 16 14 14 15 15 15 14 12 12 11 11 12 13 12 12 12 12 11 11 12 12 12 10 10 10 10 9 9 9 8 7 7 8 7 7 7 7 8 8 8 8 7 7 7 6 6 5 8 8 5
14 9 9 3 13 15 14 14 16 15 15 17 18 17 17 18 19 20 20 20 20 19 20 20 19 18 19 21 21 22 22 20 18 18 17 15 14 14 14 12 14 13 12 11 10 10 10 11 11 11 11 11 11 12 12 12 10 9 8 8 8 8 8 7 7 7 7 7 8 8 8 7 7 7 7 8 8 7 7 7 6 6 8 9 7
14 13 8 6 7 15 13 15 14 15 16 16 17 16 18 17 17 17 18 17 16 17 19 18 19 15 15 13 8 11 20 20 18 19 19 14 13 13 12 12 11 12 11 10 9 9 10 10 11 11 11 11 12 12 12 11 8 8 8 7 7 8 9 8 7 8 7 7 7 6 6 7 8 8 9 8 4 6 8 12 14 10 5 6 5
13 15 15 15 14 14 16 14 15 13 15 14 18 17 14 16 16 15 16 16 17 16 16 18 18 15 10 3 6 9 17 17 19 18 18 16 14 14 11 12 13 13 11 11 11 9 9 11 9 9 9 9 9 9 9 8 8 8 8 9 7 7 8 9 8 7 7 8 7 7 7 9 9 8 5 3 7 8 8 10 6 6 8 8 5
12 14 15 14 15 14 15 16 14 15 15 15 17 11 14 16 15 15 16 16 15 17 14 15 17 18 13 6 9 6 13 18 13 18 15 14 14 13 12 11 12 12 10 10 9 9 8 7 8 8 8 8 10 8 8 8 8 8 7 7 8 8 7 8 8 7 8 9 8 5 3 7 6 6 8 7 6 6 5 6 7 6 6 6 5
13 14 13 15 14 15 14 15 13 14 14 11 10 14 15 15 15 14 15 15 16 16 15 15 17 16 17 13 9 11 18 17 18 16 14 12 12 9 9 9 12 13 10 6 7 6 7 8 8 8 9 8 8 8 7 6 5 8 7 7 7 5 5 6 8 10 9 8 7 5 5 7 7 6 4 8 10 10 7 8 9 10 8 9 6
15 16 15 15 15 15 16 15 14 15 11 12 15 15 14 16 15 14 15 15 15 17 16 15 15 15 16 16 16 16 16 16 15 12 9 8 8 9 9 8 8 9 9 4 5 7 6 7 8 7 6 8 9 9 8 7 6 4 7 6 8 8 8 7 8 10 7 4 7 8 9 10 11 9 6 8 4 5 9 8 8 3 7 7 8
14 15 14 14 16 15 15 15 15 15 16 16 15 15 15 16 16 15 16 15 16 16 16 14 10 12 13 15 15 14 13 14 14 12 8 7 7 7 7 6 6 7 7 6 7 7 7 6 7 7 6 6 5 7 10 8 7 8 7 7 13 12 8 6 5 3 4 5 12 12 6 5 7 7 7 8 9 7 6 4 5 7 7 8 7
13 15 15 14 16 15 15 15 14 15 17 18 18 17 17 16 17 16 14 13 14 15 16 15 14 14 13 15 14 14 13 12 11 9 8 9 6 7 6 6 7 7 6 7 7 6 5 7 7 5 5 4 5 7 5 6 7 8 6 7 9 10 8 6 5 4 2 6 8 9 9 3 10 7 5 5 7 6 3 6 7 3 7 7 7
14 14 15 14 15 16 15 15 15 10 15 16 15 16 16 17 16 15 17 16 16 16 16 14 14 13 13 14 14 14 13 13 11 10 8 7 5 3 4 5 6 6 6 6 7 10 10 7 6 6 3 4 4 3 4 7 6 7 11 19 18 16 14 12 8 7 8 8 6 8 8 14 11 8 7 8 9 9 8 7 6 7 3 2 4
14 14 14 14 15 16 15 16 14 17 16 16 16 18 17 18 16 16 16 16 16 15 16 16 16 13 12 14 13 14 14 11 10 11 9 8 6 4 3 3 3 6 6 6 7 7 6 6 7 6 6 3 2 6 8 10 10 19 20 13 12 13 13 11 9 12 12 10 4 4 4 2 3 5 6 7 6 10 12 7 8 7 3 2 2
13 12 12 13 14 15 14 14 16 17 16 16 18 18 17 16 16 16 16 16 16 15 16 16 15 14 13 13 14 13 13 11 10 10 9 6 4 3 3 1 3 5 7 6 7 6 6 4 3 4 4 4 3 3 3 7 14 16 12 12 9 11 10 7 5 10 12 10 12 10 5 9 7 6 7 6 4 4 6 7 5 6 6 5 5
11 12 12 12 13 14 14 15 16 16 17 18 18 18 17 18 16 15 15 16 17 17 16 17 15 13 11 11 12 13 13 13 11 10 8 6 4 3 4 3 3 3 2 2 3 4 4 5 4 2 2 2 3 3 7 12 11 11 9 8 9 7 9 9 9 8 10 9 9 8 8 2 4 7 9 8 9 9 5 7 6 10 15 8 7
Wind_Speed
9 8 10 10 13 11 10 11 11 10 12 12 11 11 12 12 12 12 11 10 10 10 11 12 10 9 9 10 10 10 10 11 10 8 8 10 9 12 12 12 12 11 10 12 9 10 11 9 12 13 9 12 11 9 10 11 10 6 5 5 5 5 9 7 9 8 6 3 4 8 8 9 10 11 11 10 11 10 11 9 13 11 11 10 10
10 12 8 10 12 13 13 11 11 11 12 11 11 12 12 12 12 13 12 13 13 12 11 10 9 11 9 10 11 10 11 11 11 12 10 8 12 10 11 8 10 10 10 10 10 9 10 11 12 9 9 8 10 11 11 10 10 11 10 8 8 7 9 11 8 6 9 6 7 9 11 13 12 12 11 11 11 11 12 11 10 11 10 10 11
11 9 12 11 12 12 12 12 12 13 13 11 12 12 12 12 12 11 12 12 13 13 12 11 10 7 8 11 5 10 9 9 10 11 12 13 12 12 10 13 9 8 10 12 14 14 14 13 13 9 7 8 12 11 11 10 10 11 11 8 7 7 11 7 6 7 9 8 8 9 9 11 8 9 12 11 11 11 12 11 10 10 9 11 11
11 10 11 12 13 13 13 12 13 13 13 12 13 13 12 12 12 12 13 12 13 13 14 12 11 9 8 10 9 6 8 10 8 9 10 10 13 13 12 10 10 14 13 13 14 15 14 13 12 10 10 14 14 10 11 9 8 7 8 8 8 11 10 8 9 8 7 9 10 11 11 10 9 4 11 11 12 11 11 10 10 11 10 10 10
12 11 11 13 12 12 13 13 13 14 14 12 14 14 13 13 11 13 13 13 13 13 13 11 8 13 10 10 12 10 8 9 11 12 9 6 10 11 13 13 12 15 12 13 11 13 15 15 12 10 10 10 9 13 12 12 10 8 8 6 7 9 10 9 10 10 8 10 9 8 9 11 10 10 11 12 11 11 11 11 11 10 11 10 9
12 12 12 13 13 14 14 13 14 14 14 14 14 13 13 13 14 12 13 14 14 15 15 12 11 12 13 12 11 11 8 8 8 10 12 11 14 15 13 10 11 9 10 9 13 15 12 13 10 9 10 10 11 12 12 13 11 10 11 11 13 9 6 7 9 8 10 10 9 9 10 9 10 9 13 12 12 10 10 11 11 10 10 9 8
12 12 12 12 13 13 14 14 13 14 14 14 13 13 14 13 14 14 13 14 13 13 14 17 14 11 10 8 9 11 10 10 8 8 7 9 13 13 12 10 6 7 8 14 11 10 12 11 11 12 13 14 13 14 12 10 11 11 10 10 13 8 7 6 9 11 11 10 10 9 9 10 9 8 8 12 11 11 10 9 10 10 9 9 9
11 12 12 12 13 13 13 13 14 13 13 13 14 14 14 13 14 13 14 15 14 15 14 14 15 16 13 7 7 10 11 11 11 11 9 7 9 9 12 8 8 9 6 9 8 10 10 9 8 10 11 9 9 7 5 6 4 6 7 3 4 3 7 6 6 9 8 9 10 8 8 8 7 7 12 12 11 11 11 9 9 9 9 8 9
12 12 12 13 13 13 13 13 13 13 14 14 14 14 14 14 14 14 14 14 12 14 15 15 15 15 16 13 9 9 10 9 8 7 7 9 9 11 11 11 12 13 13 12 12 13 9 8 9 9 10 8 8 6 5 2 3 6 6 3 4 2 1 3 4 6 8 8 2 6 10 10 9 10 11 11 12 11 9 9 8 9 9 9 9
12 12 12 13 13 13 13 13 13 14 14 14 15 15 15 15 14 15 15 15 15 14 15 15 14 14 14 16 14 8 7 9 9 9 7 6 7 10 6 6 9 8 7 10 11 9 9 8 8 12 13 9 11 11 11 9 7 4 7 6 5 5 4 7 9 8 1 3 8 7 5 8 10 10 11 8 8 8 10 10 10 9 9 9 8
11 12 13 13 13 14 13 13 14 14 14 14 15 16 16 15 15 15 15 15 15 15 15 15 15 14 15 14 14 14 10 8 12 12 11 11 8 7 8 8 5 7 7 11 10 8 10 9 5 6 9 9 11 13 10 10 10 3 6 4 5 7 7 7 6 3 5 2 5 1 5 6 7 9 10 9 10 10 9 9 8 8 9 9 9
12 12 13 13 13 14 13 14 14 14 14 15 15 15 15 16 16 15 15 16 15 15 15 15 14 14 13 14 14 12 12 20 21 21 18 15 10 8 8 6 9 8 9 10 10 9 8 7 5 4 5 8 10 11 10 10 11 8 8 8 7 6 5 2 5 5 5 6 7 8 8 5 5 6 10 11 10 10 9 9 9 9 9 10 8
12 12 12 13 13 13 14 14 14 14 14 15 14 14 15 16 16 16 16 16 15 15 15 16 15 14 13 14 14 14 11 16 21 22 21 19 16 10 8 9 8 8 5 6 6 4 4 4 7 7 9 14 13 11 10 8 9 11 10 9 7 7 7 7 8 1 6 6 7 9 9 8 8 8 7 7 8 9 9 9 9 9 9 7 6
11 11 12 12 13 13 14 14 14 14 15 15 15 15 15 15 16 14 15 15 15 15 15 16 15 15 15 14 14 13 12 15 21 23 23 21 17 10 8 12 8 8 7 8 7 7 9 5 7 9 7 13 9 10 11 10 9 8 8 8 6 7 7 6 4 3 2 4 5 7 8 7 6 1 6 5 6 8 8 9 9 8 8 3 1
11 11 11 12 12 13 13 14 14 14 15 15 15 15 16 15 16 14 14 15 15 15 15 15 14 14 15 15 14 13 11 17 19 22 23 21 18 12 8 8 7 6 9 9 10 11 6 6 9 8 10 11 10 9 10 10 9 8 8 9 6 5 3 2 1 2 4 1 2 4 6 7 7 3 4 5 5 6 5 4 3 4 5 8 8
11 12 12 12 12 13 13 13 14 14 14 14 14 15 15 16 17 15 14 14 14 14 14 14 15 15 15 15 14 15 13 17 20 22 23 22 18 8 8 9 9 10 11 10 9 7 5 3 2 5 6 8 8 6 3 4 9 10 10 8 8 6 6 4 4 5 3 6 4 3 6 8 8 3 1 2 7 4 6 5 3 3 4 4 5
12 12 12 13 13 13 13 13 13 14 14 15 15 15 14 15 14 14 15 15 15 15 15 14 14 15 16 15 15 15 14 17 20 22 22 23 15 8 9 9 10 11 8 5 6 2 3 5 9 5 4 6 13 15 9 9 10 8 8 9 7 7 5 5 8 8 10 14 15 14 13 14 14 13 12 13 8 1 5 6 6 6 5 5 3
11 12 12 13 13 14 13 13 13 13 13 14 14 14 14 12 12 12 14 15 15 15 14 14 15 15 16 17 17 15 15 17 20 23 21 21 16 9 7 9 11 7 5 5 6 8 7 12 1 7 4 1 11 17 16 13 9 9 11 12 9 7 6 5 5 5 10 13 13 14 14 15 16 16 15 15 15 5 5 4 5 4 5 4 5
11 12 12 12 13 13 13 13 13 13 14 13 13 14 13 13 13 12 12 13 14 14 14 14 15 14 15 16 21 19 16 16 21 24 22 21 15 8 7 8 6 2 4 6 7 7 6 10 13 6 4 5 9 11 9 6 5 7 8 9 9 8 8 8 8 9 8 8 8 8 9 9 9 9 11 16 14 12 6 1 8 9 8 7 5
10 10 11 11 11 12 12 13 13 13 13 14 14 13 12 12 14 13 12 11 12 13 14 14 16 14 15 16 16 18 19 16 19 25 23 22 23 13 4 4 4 6 6 6 8 8 8 7 9 11 11 8 9 11 10 7 1 7 7 7 9 9 9 9 8 8 9 8 8 8 9 9 8 8 8 8 9 9 9 10 11 8 5 5 5
10 10 10 11 11 12 12 13 14 14 14 13 13 13 12 12 13 14 13 12 12 12 13 13 14 15 15 15 15 16 17 21 20 26 25 24 25 19 7 6 5 5 7 8 8 7 7 7 5 10 11 10 11 13 13 12 8 6 4 6 8 10 10 8 7 9 9 9 9 8 7 8 7 7 7 7 8 8 8 10 9 9 8 6 3
10 10 11 11 11 11 12 12 12 12 13 13 13 13 13 13 12 13 12 12 14 14 14 13 12 13 13 15 14 14 16 20 19 22 25 25 25 27 14 12 10 6 9 7 7 7 7 6 6 8 12 13 15 16 18 18 19 12 13 17 17 15 10 9 8 8 8 7 7 7 7 7 6 7 8 8 8 8 8 9 9 9 8 7 8
10 10 10 10 10 11 11 12 12 11 12 13 14 14 14 14 13 13 14 13 14 14 14 14 13 13 13 13 14 15 14 14 19 18 21 24 25 24 24 18 20 11 6 9 9 8 6 6 6 11 15 15 17 19 18 19 14 13 20 19 16 14 9 6 7 7 7 7 7 8 8 8 7 7 7 7 8 8 7 8 8 8 8 9 10
9 10 10 10 11 11 11 11 11 11 13 13 13 14 14 14 14 13 13 13 13 13 13 13 13 13 12 12 13 14 15 14 17 20 18 22 21 23 22 23 22 12 11 10 9 9 9 8 7 12 15 17 19 20 19 16 13 15 15 15 15 12 8 7 5 5 5 6 7 8 8 8 8 7 7 7 7 8 7 8 7 8 9 8 9
10 10 10 10 10 10 9 9 9 10 11 13 13 12 13 14 13 14 13 12 13 13 12 13 12 12 12 13 12 12 13 13 12 16 21 20 22 22 21 20 18 16 14 12 11 10 12 14 14 14 13 15 17 18 17 18 19 18 18 15 8 6 5 5 5 6 10 9 8 8 7 6 6 6 6 7 8 8 7 6 8 9 9 9 9
9 10 9 9 10 10 11 10 8 9 10 10 11 12 12 12 13 13 13 13 12 12 12 12 13 12 12 12 12 11 10 11 12 11 14 15 16 20 20 20 20 17 15 13 16 17 16 17 18 18 17 13 10 11 11 12 18 19 18 15 10 9 9 9 10 9 8 8 7 7 6 5 4 5 6 6 6 6 5 6 6 6 6 7 8
9 9 10 10 10 10 10 10 9 8 9 8 9 10 11 11 11 11 12 12 12 12 12 12 12 12 11 11 12 12 13 11 11 9 11 10 11 12 13 13 16 16 13 11 11 11 14 14 12 13 12 14 13 12 13 13 14 12 11 10 11 10 10 9 8 8 7 7 7 6 5 5 5 6 7 7 6 5 4 5 5 6 7 7 7
9 10 11 9 9 10 10 8 9 9 9 7 7 8 9 10 10 10 10 10 11 11 11 12 12 10 10 10 11 12 12 11 10 10 10 10 11 11 12 12 13 11 12 10 9 9 9 11 13 10 10 11 11 10 10 11 10 10 10 11 11 10 11 13 13 9 8 7 6 6 6 6 6 6 5 5 5 5 5 4 3 3 3 5 6
8 10 9 9 10 9 10 10 10 10 10 7 6 7 6 8 9 8 7 7 6 7 9 10 10 9 9 9 10 9 10 10 9 10 8 11 10 9 10 9 10 10 13 17 11 10 10 11 11 11 10 10 10 9 8 10 10 10 11 10 9 9 9 8 9 8 7 7 7 6 5 5 5 5 6 6 6 5 4 4 5 4 4 3 4
8 8 9 9 10 9 9 10 10 10 10 9 5 5 4 5 6 7 5 3 5 6 6 6 6 6 8 6 5 6 5 5 10 12 12 12 12 12 10 10 10 9 12 15 11 9 10 9 9 9 9 9 8 8 8 8 9 10 10 11 11 10 10 9 9 8 7 7 6 5 5 4 6 7 7 6 5 5 5 5 5 4 4 4 4
7 8 9 9 9 9 9 9 10 10 11 11 11 5 6 5 9 9 9 5 2 2 8 6 8 10 7 6 4 7 7 8 10 11 12 12 12 12 12 11 11 10 11 7 8 7 6 6 6 8 8 7 7 7 7 8 8 9 9 8 8 9 8 8 6 4 5 5 5 5 5 7 6 6 6 6 6 5 4 3 2 2 3 2 4
8 9 9 8 8 9 9 9 9 10 10 10 10 11 10 4 5 3 4 4 1 2 9 10 9 10 10 9 7 6 8 8 9 10 10 11 11 11 12 12 11 10 9 6 6 7 5 6 6 6 7 7 6 6 7 8 7 7 6 6 7 6 7 6 5 6 5 6 6 5 5 5 5 5 5 5 4 4 4 3 3 4 4 5 5
8 7 8 9 8 8 8 9 10 9 10 10 10 10 9 10 9 3 3 1 3 1 6 9 10 8 7 7 6 5 4 6 8 8 9 9 9 9 10 10 11 11 9 5 5 6 5 6 6 6 6 7 7 7 7 8 7 8 7 7 6 6 6 6 5 7 6 6 5 4 4 3 3 3 3 3 3 3 2 2 3 3 3 2 3
6 7 7 8 8 8 8 8 9 9 9 9 10 10 11 11 10 10 7 2 3 3 4 6 6 7 5 4 5 6 7 8 8 9 9 10 10 10 8 6 9 6 8 6 4 5 5 6 6 6 6 6 6 6 6 7 6 6 7 7 7 6 6 6 7 5 4 5 4 3 3 2 3 3 3 3 3 2 3 3 3 3 3 2 1
6 8 6 5 7 8 8 7 9 9 8 9 10 10 10 10 10 10 9 10 11 10 7 4 6 8 6 5 6 7 7 8 9 9 10 11 11 11 9 4 5 6 7 8 7 7 6 6 6 5 6 6 6 5 6 6 6 6 6 6 6 5 5 4 4 5 5 4 3 3 3 3 3 3 3 2 2 3 3 3 3 3 3 2 2
5 7 7 8 9 7 7 8 7 7 8 8 9 9 9 9 9 9 9 9 10 9 8 8 5 4 4 2 3 6 7 7 9 10 9 11 12 9 6 7 5 7 8 7 7 7 7 6 6 6 6 6 5 6 5 5 5 5 5 5 4 4 4 4 4 4 4 3 3 3 3 3 3 3 3 3 3 3 3 3 3 3 3 2 2
6 6 7 7 8 9 7 7 7 7 8 5 8 9 9 9 9 9 10 10 10 9 9 9 6 2 4 2 2 8 7 9 9 9 11 10 11 7 8 8 6 7 7 7 7 7 6 6 6 6 6 6 6 6 6 6 6 6 5 5 5 5 3 3 3 3 3 4 3 3 3 3 2 2 3 3 3 3 4 4 3 2 2 3 4
5 6 6 7 7 7 7 7 6 6 7 8 7 7 9 9 10 10 10 10 9 9 10 10 9 9 10 9 9 11 9 3 7 6 8 10 6 6 6 7 7 6 6 6 6 6 6 6 6 6 6 6 6 6 6 6 5 4 3 5 4 3 3 4 3 3 3 3 3 2 3 3 3 3 3 3 3 3 2 2 2 3 2 0 1
3 8 6 5 6 7 6 6 7 7 8 8 7 8 8 8 9 9 9 9 9 9 9 9 9 9 9 10 10 11 11 10 8 8 7 6 6 6 7 7 7 6 5 5 5 5 5 5 5 5 5 5 5 5 5 5 5 4 4 3 3 2 2 3 2 2 2 2 2 2 2 2 3 3 3 3 3 3 3 2 2 2 3 2 1
5 1 4 2 5 6 6 6 6 6 7 7 8 8 7 7 8 8 8 9 9 8 9 9 8 7 7 8 9 9 10 9 7 7 6 7 6 6 6 5 7 6 5 5 4 4 4 5 4 5 5 5 5 5 5 5 3 3 3 3 2 3 3 2 2 2 2 2 3 3 3 3 2 3 3 3 3 3 2 3 2 2 3 3 2
4 5 5 3 3 6 6 6 6 6 6 5 7 6 8 8 7 8 8 7 6 7 9 9 8 5 4 3 5 7 9 8 8 9 8 6 5 6 5 5 4 5 5 5 4 4 4 4 4 4 4 4 5 5 5 4 3 3 3 2 2 3 3 3 3 3 2 2 2 2 2 3 3 3 3 2 2 2 3 5 4 3 1 2 2
5 5 6 6 6 5 6 6 6 5 7 6 8 8 7 7 7 7 7 7 8 7 6 8 8 6 4 2 4 5 6 8 8 8 8 7 7 7 5 5 6 6 5 5 5 3 4 4 3 3 3 3 3 3 3 2 2 2 3 3 2 2 3 3 3 3 3 3 3 3 3 3 3 2 1 2 1 1 2 3 1 2 3 3 1
5 5 5 6 6 6 6 6 6 6 5 6 7 7 7 7 7 6 6 7 6 8 6 6 7 8 4 6 3 3 5 8 8 8 6 6 6 6 5 4 5 5 5 5 4 4 3 2 3 2 3 3 4 2 2 2 2 2 2 3 3 3 2 3 2 2 3 3 3 2 1 2 2 2 3 2 2 2 1 2 3 2 2 2 1
4 5 5 6 6 6 6 6 5 5 5 5 5 6 7 6 6 6 6 6 7 7 6 6 7 7 8 6 3 5 8 7 8 7 6 5 5 3 3 3 5 6 4 2 2 2 2 3 3 3 4 3 3 3 3 1 1 3 2 2 2 2 1 2 3 4 3 2 2 1 1 3 2 1 0 3 4 3 2 4 4 4 3 3 2
6 6 6 6 6 6 7 6 6 6 5 5 6 6 6 6 6 6 6 6 6 7 7 6 6 6 7 7 7 7 7 7 6 5 3 3 2 3 3 3 3 4 3 2 2 3 2 2 2 2 2 2 3 3 3 2 2 1 2 2 2 2 3 2 3 4 2 1 1 2 3 3 4 2 2 2 0 2 3 3 3 2 3 3 3
5 5 6 5 6 6 6 6 7 6 7 7 7 6 6 6 7 7 7 6 6 6 6 6 4 5 5 6 7 7 5 6 6 5 3 2 2 2 2 2 2 3 3 2 2 3 3 1 2 2 2 2 1 3 3 2 2 2 2 3 5 4 2 2 2 1 1 2 3 5 0 2 3 2 3 2 3 2 2 1 2 2 2 3 3
5 6 5 5 7 7 6 6 6 6 7 7 8 8 8 7 6 7 7 5 5 6 7 6 6 5 5 6 6 6 6 5 4 3 3 3 2 2 2 2 2 2 2 2 3 2 2 3 2 2 2 1 1 2 1 1 1 3 1 2 2 4 3 2 1 0 0 2 3 3 3 0 3 2 1 1 2 2 1 2 2 1 3 2 2
5 5 6 5 6 6 6 6 6 6 6 7 6 7 7 7 7 7 7 7 7 6 6 5 5 4 5 6 6 6 6 5 4 3 3 2 1 0 1 2 2 2 2 2 3 4 4 3 2 2 1 1 1 0 1 1 1 1 5 8 8 6 7 7 3 3 3 3 2 4 3 5 4 2 2 3 2 3 2 2 2 2 0 0 1
5 5 5 5 5 6 6 6 6 7 7 7 7 8 8 8 7 7 7 6 6 6 6 7 6 5 5 5 6 6 6 5 4 4 3 2 2 1 0 1 1 2 2 2 2 2 2 2 3 2 2 1 0 2 3 4 4 9 8 5 6 9 10 9 5 5 8 4 1 0 1 0 1 1 2 3 2 4 5 3 3 2 0 0 0
4 4 5 5 5 6 5 5 6 7 7 7 7 8 8 7 7 7 7 6 6 6 6 6 6 5 4 5 6 5 5 4 3 3 3 1 1 0 0 0 1 2 2 2 3 2 2 2 1 1 1 1 1 0 0 3 6 5 5 4 6 9 7 6 5 8 7 4 5 4 1 3 3 2 1 2 1 1 2 1 1 2 1 1 1
4 4 5 4 5 5 5 5 7 7 7 8 8 7 7 7 7 6 6 6 7 7 6 6 6 4 4 3 5 5 5 5 4 4 3 1 1 0 0 0 0 0 0 0 1 1 1 2 1 0 0 0 0 0 3 5 4 4 4 6 7 6 7 7 4 6 7 6 4 3 3 0 1 3 3 3 4 2 1 2 2 3 7 2 2
Wind_Direction
350 4 1 354 352 345 2 348 354 345 340 333 329 326 326 324 322 322 315 296 278 276 273 279 270 264 265 257 249 251 238 233 216 204 217 228 221 230 227 209 209 207 205 198 185 191 197 201 220 224 219 217 216 214 224 218 210 211 206 211 228 215 215 185 218 196 194 169 214 169 186 185 185 179 189 151 157 182 205 141 138 155 165 168 177
354 9 353 356 360 345 8 343 0 349 341 337 334 334 328 324 319 316 313 314 306 290 282 278 285 281 287 284 279 258 247 244 232 222 214 219 231 223 231 204 224 216 206 202 190 190 193 195 214 215 217 226 229 219 210 213 209 211 212 213 218 229 231 220 202 201 182 157 195 197 174 183 189 192 186 160 168 173 196 155 169 175 181 172 172
3 6 357 358 359 356 355 358 353 354 346 344 339 335 329 325 322 315 310 308 306 305 297 289 282 291 286 280 274 275 272 253 246 231 225 222 221 223 220 219 201 214 207 207 208 205 201 200 199 197 208 219 236 229 219 207 212 212 212 207 216 235 228 204 182 196 191 182 191 198 191 177 187 191 182 182 167 180 194 181 177 188 187 186 175
355 7 3 359 359 356 356 355 353 348 354 346 342 337 332 328 326 324 318 310 303 298 299 300 294 276 266 269 275 276 271 274 267 262 239 225 229 225 219 220 217 218 210 205 209 209 207 204 199 190 201 221 214 228 221 199 199 211 217 212 208 219 232 209 178 188 200 195 194 201 187 185 168 191 205 184 181 181 197 190 183 187 189 190 193
358 360 2 0 358 357 360 354 354 346 353 348 341 339 339 334 332 328 322 317 312 305 298 298 297 289 279 277 275 272 275 272 254 252 258 263 259 228 218 216 217 222 215 218 213 217 211 210 201 187 183 219 208 221 219 206 201 199 218 228 234 224 216 199 206 178 194 202 197 204 194 191 182 183 204 181 192 174 202 192 188 193 189 186 212
357 5 2 2 356 357 357 352 350 350 350 348 345 344 343 338 334 329 329 326 325 319 311 305 301 291 282 282 280 274 266 268 259 234 245 240 224 231 223 213 224 216 219 239 232 214 208 209 199 197 199 208 212 217 219 210 206 205 207 211 221 209 220 210 209 206 195 203 202 201 187 197 181 200 196 190 194 181 197 191 188 194 185 187 193
0 5 3 360 358 357 355 354 352 350 350 347 348 347 344 341 339 334 332 328 327 327 328 322 310 294 288 289 297 296 288 278 269 269 264 249 258 239 231 221 209 227 211 220 219 223 208 204 199 204 209 207 204 217 214 213 213 217 223 213 222 178 199 200 210 198 200 200 207 206 204 190 185 190 194 194 182 198 192 192 188 189 187 179 189
5 4 1 2 2 357 356 354 352 353 349 350 351 348 344 344 343 339 336 334 334 335 332 331 331 321 313 295 279 268 267 267 267 259 253 254 266 280 249 225 228 231 237 231 217 215 200 196 202 214 218 213 205 195 166 226 259 249 228 262 309 218 205 195 225 228 213 194 200 199 210 174 171 193 207 194 184 195 195 194 192 187 181 180 197
4 5 6 4 3 358 357 358 351 355 353 352 352 351 350 347 343 342 341 337 337 337 336 339 339 336 332 319 293 275 274 270 265 256 262 254 244 247 251 241 230 232 220 223 218 219 197 184 196 206 213 198 154 141 154 141 211 228 226 166 150 94 324 348 315 290 237 200 72 238 202 182 181 193 213 202 199 198 187 188 191 192 184 186 194
6 8 6 5 3 1 0 358 356 355 355 356 354 352 352 353 348 346 345 342 341 340 341 342 343 342 335 331 320 287 270 277 275 276 255 254 260 255 260 290 260 238 232 223 208 203 201 195 190 194 217 173 145 149 153 162 171 255 227 177 178 176 167 185 207 220 261 304 175 213 219 208 189 188 214 206 187 197 192 190 194 186 191 187 193
10 11 7 7 3 1 2 1 358 359 357 359 355 355 356 354 351 349 347 346 343 344 345 344 344 341 339 335 330 326 313 282 280 280 287 273 254 255 243 223 237 251 245 247 226 195 212 199 173 204 212 187 161 159 183 180 172 183 64 109 154 174 185 187 206 152 185 129 91 95 312 259 211 189 206 187 189 200 195 195 196 201 200 190 194
11 10 11 7 4 2 4 1 1 1 1 0 359 358 356 357 354 351 350 348 348 346 347 347 345 347 341 337 332 331 331 354 340 333 314 294 276 261 256 214 223 237 233 221 234 216 209 192 157 183 210 226 202 169 183 172 153 152 140 126 123 82 50 202 183 182 194 181 166 176 199 223 268 224 200 192 190 199 201 195 199 206 218 212 214
14 12 12 8 5 6 4 3 3 4 3 1 360 0 359 358 357 354 352 350 348 350 349 347 348 346 345 342 336 335 331 358 353 353 349 339 315 292 258 247 236 232 221 239 235 261 262 144 176 181 201 222 212 183 163 153 142 140 131 125 110 117 103 57 19 300 186 178 167 175 192 181 201 224 218 214 201 202 196 199 196 208 225 208 207
20 16 12 8 6 4 5 3 1 2 2 1 3 2 0 359 359 355 352 352 351 350 348 349 349 347 348 343 337 337 324 357 352 348 344 335 327 316 269 257 234 219 232 236 246 233 225 207 201 202 197 218 213 207 176 158 159 157 165 169 145 100 93 112 107 32 326 202 192 204 187 173 173 188 279 279 213 195 191 197 188 200 223 178 81
25 19 14 11 7 6 3 2 1 360 0 0 1 1 1 2 359 357 357 357 355 353 351 350 350 350 349 345 343 337 333 347 351 346 340 334 327 317 288 279 246 210 229 227 228 219 199 218 217 219 205 210 204 198 167 171 169 177 183 193 177 160 151 100 69 199 193 188 151 220 202 179 174 168 306 266 237 216 194 164 127 131 83 99 103
22 21 18 15 11 10 7 4 3 2 2 2 359 359 359 0 0 359 356 358 360 358 357 356 354 353 351 349 347 339 336 344 350 345 337 333 326 303 282 262 247 228 233 225 219 217 192 182 310 195 205 221 154 184 162 195 182 180 189 154 115 93 62 40 7 322 321 214 213 74 59 66 64 93 105 230 201 134 101 114 111 90 134 114 131
19 18 18 15 17 12 9 8 6 3 3 1 3 3 359 358 359 357 357 0 0 3 1 3 1 359 357 355 353 345 341 344 349 343 335 332 324 302 285 268 249 235 222 256 232 100 41 166 191 253 217 188 162 155 189 201 193 173 189 143 149 103 93 71 52 50 76 83 86 96 95 81 72 59 47 31 11 132 156 162 167 179 167 163 143
15 14 15 14 12 17 14 12 10 4 4 3 3 2 2 2 359 356 358 358 3 3 360 2 5 5 2 0 1 352 348 345 351 344 337 336 325 293 282 270 245 228 134 92 100 85 49 29 38 184 250 159 144 146 176 192 179 187 180 153 128 118 112 119 103 71 77 82 85 90 90 88 84 74 56 42 25 360 175 169 146 171 189 166 161
15 13 13 13 14 14 14 13 11 7 8 8 4 3 4 2 4 2 359 359 1 2 1 3 5 7 6 3 3 3 356 350 355 348 344 347 343 293 295 271 232 119 89 86 69 79 58 45 28 33 154 101 94 87 54 13 185 170 152 150 138 138 137 137 129 125 117 101 95 95 97 101 90 79 68 56 40 26 27 229 179 204 197 205 150
17 14 13 13 12 15 14 11 9 10 9 5 11 11 3 3 3 5 5 4 359 0 2 1 4 6 10 10 11 12 7 360 0 356 354 359 360 342 323 343 30 43 32 48 71 52 44 33 28 27 58 66 76 71 64 30 243 149 146 146 139 129 137 139 140 137 128 124 112 101 99 101 100 93 80 71 61 43 42 39 33 29 41 90 89
13 17 14 13 13 15 15 11 7 9 9 7 9 13 12 6 3 3 5 8 13 7 4 1 4 6 9 13 13 15 18 16 12 7 4 8 13 8 350 20 42 59 58 53 40 43 32 27 28 14 47 55 67 66 63 54 62 109 100 117 116 124 123 105 80 88 106 106 115 113 102 79 70 80 84 73 65 62 56 48 41 36 35 32 70
10 17 16 11 14 15 14 17 10 8 9 8 7 7 13 14 7 3 2 5 11 14 11 7 3 5 6 9 12 14 13 16 16 15 13 16 21 24 18 11 9 82 71 63 55 47 34 19 18 20 45 57 62 69 71 74 78 80 87 88 83 87 100 109 121 127 122 119 110 106 105 106 96 84 76 69 69 63 56 55 55 56 46 44 22
10 15 14 14 9 20 16 16 14 10 12 8 8 11 11 13 13 6 4 4 10 13 13 12 10 6 6 7 10 13 14 14 14 14 14 18 23 29 30 27 12 8 39 76 63 57 46 43 40 44 53 52 66 68 70 73 75 90 93 90 87 83 89 96 98 106 107 106 104 101 95 87 90 84 75 78 77 71 60 54 62 69 69 47 36
16 12 11 13 10 18 17 16 22 14 15 14 12 11 14 12 13 14 9 6 6 11 13 13 11 12 7 6 10 14 14 15 12 12 13 15 21 25 28 35 34 27 30 52 55 55 45 40 51 62 68 67 63 65 64 65 70 69 71 78 84 84 95 84 70 66 71 87 76 66 68 68 62 62 71 77 74 70 69 76 67 58 59 66 58
21 17 14 14 11 15 24 14 21 16 16 17 17 15 15 16 12 12 16 12 8 8 13 13 16 13 13 12 10 7 7 6 8 10 12 14 17 19 19 23 37 35 41 42 49 53 53 46 41 47 49 60 67 67 62 59 59 57 57 52 63 121 125 108 96 77 71 69 71 70 66 65 77 86 102 102 96 86 79 76 77 73 76 76 72
28 23 15 17 19 9 24 13 16 25 18 12 13 16 16 16 18 12 13 14 12 12 12 14 13 21 16 15 12 7 359 4 4 6 12 16 16 13 16 20 20 26 37 41 44 46 45 47 44 42 41 32 50 62 66 62 61 57 53 55 51 48 55 74 77 81 76 72 68 70 71 67 57 48 52 71 91 99 114 111 106 105 103 89 83
18 31 17 17 15 12 19 19 5 26 23 24 18 19 17 17 24 19 16 14 15 14 18 17 12 15 23 17 14 13 16 12 7 1 7 12 18 14 16 15 17 20 22 20 23 37 37 40 43 40 51 45 45 59 65 58 56 51 51 55 54 47 47 47 59 71 77 75 71 71 73 72 60 53 56 54 48 26 43 88 108 119 121 112 109
7 25 30 20 10 13 19 14 9 13 18 52 30 29 22 22 25 33 16 18 15 16 17 18 14 14 19 14 12 14 15 14 9 2 5 11 10 17 18 17 16 13 15 9 12 19 31 35 37 33 36 40 35 35 46 56 58 58 54 53 51 49 50 55 56 55 57 67 74 67 51 57 65 63 63 62 58 44 28 41 48 80 100 120 111
13 23 33 23 6 13 17 14 7 10 14 58 76 49 41 28 28 38 42 19 14 17 19 21 13 14 25 17 10 10 9 5 352 335 351 7 14 12 18 16 14 15 8 8 7 15 23 33 31 28 30 35 34 29 37 54 56 56 59 58 58 56 51 47 52 50 50 59 65 68 77 86 86 76 72 68 58 46 16 49 41 55 37 62 107
18 18 29 31 12 9 18 13 15 12 13 17 92 121 20 12 13 33 59 59 8 4 21 34 2 5 30 47 34 27 3 334 326 346 359 4 9 14 14 15 16 14 11 13 21 24 19 22 25 27 26 29 32 29 29 43 53 53 49 52 53 52 51 49 45 43 38 45 45 46 45 61 69 68 68 68 66 54 31 29 58 58 75 84 90
20 12 24 26 22 1 16 16 10 10 7 9 9 42 138 105 49 58 70 52 22 74 73 59 27 14 18 51 109 101 53 11 6 0 359 0 4 6 8 8 11 8 9 18 28 32 19 24 19 23 26 29 34 30 32 41 48 55 55 55 54 56 57 56 53 48 47 52 51 49 45 44 49 50 58 52 53 54 46 30 50 53 80 86 93
33 9 11 17 22 13 8 12 6 12 14 11 10 359 5 42 131 33 56 95 67 43 85 67 48 29 29 26 26 46 33 21 6 8 2 3 2 3 3 7 10 11 348 15 41 36 29 32 29 31 29 38 38 35 38 44 44 51 56 58 54 51 53 51 38 51 50 47 47 45 42 41 43 45 44 43 34 47 52 46 50 40 46 44 34
34 28 3 2 11 17 6 6 358 15 3 5 9 1 6 2 4 61 169 11 355 274 95 87 74 57 42 37 40 43 5 347 354 355 355 346 347 349 348 347 2 15 12 29 35 37 37 36 40 41 43 47 45 44 44 48 50 52 54 60 61 54 56 52 53 58 52 46 51 50 45 47 45 52 50 53 51 44 22 38 70 71 71 69 66
46 31 24 354 0 8 8 9 349 7 360 355 6 1 8 5 1 360 11 96 170 157 98 81 104 122 83 47 21 358 354 343 340 334 335 328 326 324 335 307 297 1 29 32 35 42 39 39 41 42 46 49 47 47 48 51 51 58 66 70 70 69 62 58 60 61 62 56 52 41 53 61 78 73 73 70 63 53 37 45 54 62 70 82 69
32 148 135 12 352 4 1 7 349 1 352 356 2 2 1 8 1 358 5 356 0 357 12 81 62 35 40 36 4 345 341 336 327 329 325 325 326 330 318 12 26 29 29 34 32 34 42 49 56 56 56 56 58 60 63 62 62 64 64 66 68 67 68 67 64 60 65 65 62 61 58 49 41 36 46 58 68 70 66 54 64 76 90 91 93
47 8 11 360 347 357 359 360 2 4 340 359 354 6 351 360 358 1 357 3 359 355 356 18 92 109 98 82 292 307 311 307 309 308 309 308 316 326 12 18 24 31 30 30 34 39 44 49 56 60 64 70 74 75 75 79 79 78 75 71 70 69 68 64 62 63 70 72 73 74 75 77 86 97 98 87 70 70 77 78 70 48 40 38 22
19 22 6 2 344 338 346 354 10 358 308 339 355 355 354 356 357 1 357 2 8 356 354 1 16 110 213 36 289 243 244 283 294 295 301 303 294 327 21 13 18 27 31 35 35 40 48 54 59 63 66 70 75 76 79 79 79 80 77 78 70 67 59 65 78 89 80 74 68 63 63 74 84 96 100 99 102 100 90 82 78 69 59 22 353
18 16 15 5 342 334 339 353 355 333 339 1 3 352 354 356 353 360 1 6 12 0 350 8 11 7 3 2 354 355 339 357 360 360 7 360 2 19 9 16 16 32 35 41 41 49 54 56 57 61 67 68 71 74 79 83 81 80 76 74 78 80 93 76 68 91 105 104 99 104 108 99 83 78 73 77 74 73 81 99 116 110 80 47 212
49 112 90 21 323 343 336 351 340 345 355 346 1 2 349 352 359 356 1 358 4 2 356 6 9 11 10 5 360 346 339 354 359 4 14 6 4 4 17 7 16 24 35 46 53 56 60 64 67 65 67 71 72 74 72 73 78 89 98 108 119 138 127 108 112 111 112 111 102 98 102 103 100 94 95 92 91 93 88 62 45 90 97 58 51
350 271 56 184 327 345 325 350 330 4 350 340 353 346 354 4 352 354 356 359 4 356 2 8 13 24 23 11 2 348 339 357 7 6 18 7 0 358 14 13 8 21 25 42 51 62 70 68 76 84 84 82 84 87 91 94 99 114 129 120 108 103 105 111 111 104 94 94 98 95 91 95 82 84 96 105 113 125 125 118 104 88 126 140 120
356 349 332 355 358 303 346 341 347 7 339 347 333 349 352 355 355 346 350 356 0 357 356 1 4 38 47 11 298 315 341 12 9 6 11 18 351 9 8 14 9 14 24 41 52 63 72 84 77 78 80 83 90 96 101 109 110 94 89 94 89 81 77 75 80 87 87 98 106 102 96 98 110 115 109 116 159 160 177 166 159 147 97 58 112
343 340 339 352 321 342 340 339 342 333 343 10 339 355 342 345 343 343 345 355 350 352 353 356 360 16 121 211 286 298 330 12 13 9 11 6 357 13 14 12 10 11 16 28 38 48 57 65 74 79 92 96 93 98 106 105 106 98 86 81 96 112 113 95 79 78 91 86 64 64 69 68 78 75 37 48 61 316 83 65 83 90 115 124 81
331 327 342 338 330 337 336 333 347 346 354 359 351 334 331 328 329 343 336 349 347 346 350 348 350 351 359 175 290 288 350 13 8 9 20 8 12 19 15 14 4 4 8 18 29 55 67 80 86 97 94 108 117 116 109 98 96 96 94 77 72 85 91 108 118 113 96 83 82 80 134 168 165 107 98 74 45 34 71 152 157 144 91 45 71
343 333 344 326 338 329 337 329 348 335 2 331 323 327 324 323 324 340 343 343 345 345 352 350 343 353 351 3 338 343 13 8 9 13 18 20 10 14 15 11 2 344 348 17 20 40 76 80 71 66 70 59 57 56 58 72 110 100 100 126 96 67 109 137 142 135 119 122 130 114 106 92 80 77 117 145 130 109 50 355 14 37 77 88 29
0 327 350 335 338 331 335 326 347 324 312 318 346 328 333 332 330 347 343 332 348 345 352 354 349 342 349 348 357 0 7 11 17 16 17 16 19 9 6 5 354 342 328 357 5 26 66 87 104 108 111 113 91 71 61 34 1 71 108 137 158 152 83 36 12 8 60 39 354 167 165 181 174 115 106 125 130 137 126 127 110 55 40 58 81
337 340 341 337 332 333 317 333 324 321 334 320 323 334 343 341 341 344 343 341 348 338 337 340 349 343 336 353 358 3 11 6 17 31 12 8 23 16 5 4 353 340 345 15 45 18 16 30 86 98 85 74 94 102 107 142 85 55 9 40 46 58 79 53 5 359 16 351 5 328 97 84 48 72 35 9 76 46 79 29 30 39 126 134 97
341 343 331 347 330 325 328 326 322 343 317 306 325 349 333 335 343 334 331 349 329 323 325 339 348 350 351 356 360 0 11 12 25 29 23 349 351 7 12 17 4 349 359 10 12 44 53 28 31 47 45 59 53 4 38 106 141 92 251 159 144 103 72 55 79 337 47 20 346 341 357 89 123 117 64 356 68 98 71 82 91 336 339 35 119
322 333 352 334 325 329 328 331 335 312 314 327 336 321 320 329 340 341 336 340 340 341 329 344 351 358 358 359 356 1 7 15 39 25 16 15 17 21 12 10 3 349 347 360 12 14 15 23 12 4 14 359 305 321 229 196 187 85 62 59 52 55 37 11 341 8 18 6 11 348 5 13 7 28 34 61 0 353 331 138 167 159 144 345 16
320 356 336 329 332 320 341 325 333 329 341 329 327 326 344 328 338 346 334 342 345 336 337 346 341 348 7 1 350 12 13 13 24 34 12 26 27 60 30 359 342 335 341 2 10 10 353 3 343 349 350 337 336 319 342 348 26 62 65 66 44 46 50 21 10 8 337 314 327 16 302 333 34 58 51 12 11 11 342 19 356 357 301 55 32
346 347 315 314 326 332 324 334 338 330 329 340 348 335 323 329 347 349 333 334 336 341 346 346 333 347 3 3 349 12 13 17 13 19 21 36 44 123 125 288 347 350 354 6 359 348 337 344 321 332 339 5 5 341 25 51 46 51 63 56 38 46 34 13 49 20 354 341 335 311 10 30 340 0 337 145 104 41 292 263 262 271 350 102 220
353 320 302 316 318 319 326 343 316 331 353 358 330 329 336 347 343 332 328 334 337 341 346 345 333 344 5 14 2 5 7 6 6 3 24 69 107 203 209 178 228 224 240 284 272 288 291 275 258 243 304 11 46 61 65 66 62 62 57 47 47 38 36 23 22 6 357 339 320 332 328 31 14 335 319 351 342 232 170 31 348 312 299 273 84